Time,TemperatureF,DewpointF,PressureIn,WindDirection,WindDirectionDegrees,WindSpeedMPH,WindSpeedGustMPH,Humidity,HourlyPrecipIn,Conditions,Clouds,dailyrainin,SolarRadiationWatts/m^2,SoftwareType,DateUTC
2013-07-08 00:01:00,73.0,70.0,-100.00,East,84,6.0,14.0,89,0.02,,,0.38,0.000000,,2013-07-08 05:01:00,
2013-07-08 00:11:00,72.0,70.0,-100.00,North,357,3.0,13.0,95,0.00,,,0.38,0.000000,,2013-07-08 05:11:00,
2013-07-08 00:43:00,72.0,70.0,-100.00,North,357,3.0,13.0,95,0.00,,,0.38,0.000000,,2013-07-08 05:43:00,
2013-07-08 00:53:00,72.0,70.0,-100.00,North,357,3.0,13.0,95,0.00,,,0.38,0.000000,,2013-07-08 05:53:00,
2013-07-08 01:01:00,72.0,70.0,-100.00,North,357,3.0,13.0,95,0.00,,,0.38,0.000000,,2013-07-08 06:01:00,
2013-07-08 01:11:00,71.0,70.0,-100.00,North,351,4.0,6.0,96,0.01,,,0.39,0.000000,,2013-07-08 06:11:00,
2013-07-08 01:43:00,71.0,70.0,-100.00,North,351,4.0,6.0,96,0.01,,,0.39,0.000000,,2013-07-08 06:43:00,
2013-07-08 01:53:00,71.0,70.0,-100.00,North,351,4.0,6.0,96,0.01,,,0.39,0.000000,,2013-07-08 06:53:00,
2013-07-08 02:02:00,71.0,70.0,-100.00,North,351,4.0,6.0,96,0.01,,,0.39,0.000000,,2013-07-08 07:02:00,
2013-07-08 02:11:00,70.0,69.0,-100.00,NNE,24,2.0,9.0,97,0.00,,,0.39,0.000000,,2013-07-08 07:11:00,
2013-07-08 02:44:00,70.0,69.0,-100.00,NNE,24,2.0,9.0,97,0.00,,,0.39,0.000000,,2013-07-08 07:44:00,
2013-07-08 02:53:00,70.0,69.0,-100.00,NNE,24,2.0,9.0,97,0.00,,,0.39,0.000000,,2013-07-08 07:53:00,
2013-07-08 03:02:00,70.0,69.0,-100.00,NNE,24,2.0,9.0,97,0.00,,,0.39,0.000000,,2013-07-08 08:02:00,
2013-07-08 03:11:00,69.0,68.0,-100.00,NNW,334,1.0,4.0,98,0.00,,,0.39,0.000000,,2013-07-08 08:11:00,
2013-07-08 03:42:00,69.0,68.0,-100.00,NNW,334,1.0,4.0,98,0.00,,,0.39,0.000000,,2013-07-08 08:42:00,
2013-07-08 03:53:00,69.0,68.0,-100.00,NNW,334,1.0,4.0,98,0.00,,,0.39,0.000000,,2013-07-08 08:53:00,
2013-07-08 04:01:00,69.0,68.0,-100.00,NNW,334,1.0,4.0,98,0.00,,,0.39,0.000000,,2013-07-08 09:01:00,
2013-07-08 04:11:00,69.0,68.0,-100.00,NNE,12,3.0,6.0,96,0.00,,,0.39,0.000000,,2013-07-08 09:11:00,
2013-07-08 04:43:00,69.0,68.0,-100.00,NNE,12,3.0,6.0,96,0.00,,,0.39,0.000000,,2013-07-08 09:43:00,
2013-07-08 04:53:00,69.0,68.0,-100.00,NNE,12,3.0,6.0,96,0.00,,,0.39,0.000000,,2013-07-08 09:53:00,
2013-07-08 05:02:00,69.0,68.0,-100.00,NNE,12,3.0,6.0,96,0.00,,,0.39,0.000000,,2013-07-08 10:02:00,
2013-07-08 05:11:00,67.0,67.0,-100.00,WSW,238,0.0,4.0,99,0.00,,,-99.99,0.000000,,2013-07-08 10:11:00,
2013-07-08 05:43:00,67.0,67.0,-100.00,WSW,238,0.0,4.0,99,0.00,,,-99.99,0.000000,,2013-07-08 10:43:00,
2013-07-08 05:53:00,67.0,67.0,-100.00,WSW,238,0.0,4.0,99,0.00,,,-99.99,0.000000,,2013-07-08 10:53:00,
2013-07-08 06:02:00,67.0,67.0,-100.00,WSW,238,0.0,4.0,99,0.00,,,-99.99,0.000000,,2013-07-08 11:02:00,
2013-07-08 06:11:00,66.0,66.0,-100.00,North,358,2.0,5.0,100,0.00,,,0.39,2.000000,,2013-07-08 11:11:00,
2013-07-08 06:33:00,66.0,66.0,-100.00,North,358,2.0,5.0,100,0.00,,,0.39,2.000000,,2013-07-08 11:33:00,
2013-07-08 06:43:00,66.0,66.0,-100.00,North,358,2.0,5.0,100,0.00,,,0.39,2.000000,,2013-07-08 11:43:00,
2013-07-08 06:53:00,66.0,66.0,-100.00,North,358,2.0,5.0,100,0.00,,,0.39,2.000000,,2013-07-08 11:53:00,
2013-07-08 07:01:00,66.0,66.0,-100.00,North,358,2.0,5.0,100,0.00,,,0.39,2.000000,,2013-07-08 12:01:00,
2013-07-08 07:11:00,69.0,69.0,-100.00,NNE,21,6.0,11.0,100,0.00,,,0.39,27.000000,,2013-07-08 12:11:00,
2013-07-08 07:43:00,69.0,69.0,-100.00,NNE,21,6.0,11.0,100,0.00,,,0.39,27.000000,,2013-07-08 12:43:00,
2013-07-08 07:53:00,69.0,69.0,-100.00,NNE,21,6.0,11.0,100,0.00,,,0.39,27.000000,,2013-07-08 12:53:00,
2013-07-08 08:02:00,69.0,69.0,-100.00,NNE,21,6.0,11.0,100,0.00,,,0.39,27.000000,,2013-07-08 13:02:00,
2013-07-08 08:11:00,76.0,71.0,-100.00,East,97,3.0,10.0,85,0.00,,,0.39,142.000000,,2013-07-08 13:11:00,
2013-07-08 08:42:00,76.0,71.0,-100.00,East,97,3.0,10.0,85,0.00,,,0.39,142.000000,,2013-07-08 13:42:00,
2013-07-08 08:53:00,76.0,71.0,-100.00,East,97,3.0,10.0,85,0.00,,,0.39,142.000000,,2013-07-08 13:53:00,
2013-07-08 09:02:00,76.0,71.0,-100.00,East,97,3.0,10.0,85,0.00,,,0.39,142.000000,,2013-07-08 14:02:00,
2013-07-08 09:11:00,79.0,73.0,-100.00,East,83,5.0,9.0,81,0.00,,,0.39,292.000000,,2013-07-08 14:11:00,
2013-07-08 09:43:00,79.0,73.0,-100.00,East,83,5.0,9.0,81,0.00,,,0.39,292.000000,,2013-07-08 14:43:00,
2013-07-08 09:53:00,79.0,73.0,-100.00,East,83,5.0,9.0,81,0.00,,,0.39,292.000000,,2013-07-08 14:53:00,
2013-07-08 10:02:00,79.0,73.0,-100.00,East,83,5.0,9.0,81,0.00,,,0.39,292.000000,,2013-07-08 15:02:00,
2013-07-08 10:11:00,83.0,73.0,-100.00,NE,44,4.0,11.0,73,0.00,,,0.39,415.000000,,2013-07-08 15:11:00,
2013-07-08 10:43:00,83.0,73.0,-100.00,NE,44,4.0,11.0,73,0.00,,,0.39,415.000000,,2013-07-08 15:43:00,
2013-07-08 10:53:00,83.0,73.0,-100.00,NE,44,4.0,11.0,73,0.00,,,0.39,415.000000,,2013-07-08 15:53:00,
2013-07-08 11:01:00,83.0,73.0,-100.00,NE,44,4.0,11.0,73,0.00,,,0.39,415.000000,,2013-07-08 16:01:00,
2013-07-08 11:11:00,85.0,74.0,-100.00,East,80,5.0,10.0,70,0.00,,,0.39,576.000000,,2013-07-08 16:11:00,
2013-07-08 11:43:00,85.0,74.0,-100.00,East,80,5.0,10.0,70,0.00,,,0.39,576.000000,,2013-07-08 16:43:00,
2013-07-08 11:57:00,85.0,74.0,-100.00,East,80,5.0,10.0,70,0.00,,,0.39,576.000000,,2013-07-08 16:57:00,
2013-07-08 12:11:00,87.0,73.0,-100.00,East,87,6.0,9.0,64,0.00,,,0.39,677.000000,,2013-07-08 17:11:00,
2013-07-08 12:48:00,87.0,73.0,-100.00,East,87,6.0,9.0,64,0.00,,,0.39,677.000000,,2013-07-08 17:48:00,
2013-07-08 12:55:00,87.0,73.0,-100.00,East,87,6.0,9.0,64,0.00,,,0.39,677.000000,,2013-07-08 17:55:00,
2013-07-08 13:05:00,87.0,73.0,-100.00,East,87,6.0,9.0,64,0.00,,,0.39,677.000000,,2013-07-08 18:05:00,
2013-07-08 13:55:00,89.0,75.0,-100.00,ENE,68,6.0,11.0,63,0.00,,,0.39,737.000000,,2013-07-08 18:55:00,
2013-07-08 14:00:00,89.0,75.0,-100.00,ENE,68,6.0,11.0,63,0.00,,,0.39,737.000000,,2013-07-08 19:00:00,
2013-07-08 14:10:00,89.0,75.0,-100.00,ENE,68,6.0,11.0,63,0.00,,,0.39,737.000000,,2013-07-08 19:10:00,
2013-07-08 14:11:00,92.0,73.0,-100.00,ENE,70,5.0,11.0,55,0.00,,,0.39,785.000000,,2013-07-08 19:11:00,
2013-07-08 14:56:00,92.0,73.0,-100.00,ENE,70,5.0,11.0,55,0.00,,,0.39,785.000000,,2013-07-08 19:56:00,
2013-07-08 15:05:00,92.0,73.0,-100.00,ENE,70,5.0,11.0,55,0.00,,,0.39,785.000000,,2013-07-08 20:05:00,
2013-07-08 15:55:00,92.0,75.0,-100.00,SE,130,5.0,10.0,57,0.00,,,0.39,702.000000,,2013-07-08 20:55:00,
2013-07-08 16:06:00,92.0,75.0,-100.00,SE,130,5.0,10.0,57,0.00,,,0.39,702.000000,,2013-07-08 21:06:00,
2013-07-08 16:11:00,93.0,73.0,-100.00,ESE,111,5.0,12.0,53,0.00,,,0.39,671.000000,,2013-07-08 21:11:00,
2013-07-08 17:08:00,93.0,73.0,-100.00,ESE,111,5.0,12.0,53,0.00,,,0.39,671.000000,,2013-07-08 22:08:00,
2013-07-08 17:11:00,93.0,73.0,-100.00,SE,127,5.0,10.0,53,0.00,,,0.39,548.000000,,2013-07-08 22:11:00,
2013-07-08 18:11:00,88.0,69.0,-100.00,SE,138,3.0,17.0,54,0.00,,,0.39,452.000000,,2013-07-08 23:11:00,
2013-07-08 19:11:00,89.0,73.0,-100.00,South,190,2.0,6.0,59,0.00,,,0.39,322.000000,,2013-07-09 00:11:00,
2013-07-08 19:58:00,89.0,73.0,-100.00,South,190,2.0,6.0,59,0.00,,,0.39,322.000000,,2013-07-09 00:58:00,
2013-07-08 20:07:00,89.0,73.0,-100.00,South,190,2.0,6.0,59,0.00,,,0.39,322.000000,,2013-07-09 01:07:00,
2013-07-08 20:11:00,83.0,69.0,-100.00,ESE,121,5.0,7.0,63,0.00,,,0.39,100.000000,,2013-07-09 01:11:00,
2013-07-08 21:00:00,83.0,69.0,-100.00,ESE,121,5.0,7.0,63,0.00,,,0.39,100.000000,,2013-07-09 02:00:00,
2013-07-08 21:11:00,80.0,71.0,-100.00,East,100,4.0,6.0,73,0.00,,,0.39,11.000000,,2013-07-09 02:11:00,
2013-07-08 22:00:00,80.0,71.0,-100.00,East,100,4.0,6.0,73,0.00,,,0.39,11.000000,,2013-07-09 03:00:00,
2013-07-08 22:10:00,80.0,71.0,-100.00,East,100,4.0,6.0,73,0.00,,,0.39,11.000000,,2013-07-09 03:10:00,
2013-07-08 22:11:00,78.0,70.0,-100.00,East,98,4.0,6.0,76,0.00,,,0.03,0.000000,,2013-07-09 03:11:00,
2013-07-08 22:59:00,78.0,70.0,-100.00,East,98,4.0,6.0,76,0.00,,,0.03,0.000000,,2013-07-09 03:59:00,
2013-07-08 23:02:00,78.0,70.0,-100.00,East,98,4.0,6.0,76,0.00,,,0.03,0.000000,,2013-07-09 04:02:00,
2013-07-08 23:11:00,79.0,72.0,-100.00,SE,136,4.0,8.0,80,0.00,,,0.01,0.000000,,2013-07-09 04:11:00,
2013-07-08 23:34:00,79.0,72.0,-100.00,SE,136,4.0,8.0,80,0.00,,,0.01,0.000000,,2013-07-09 04:34:00,
2013-07-08 23:43:00,79.0,72.0,-100.00,SE,136,4.0,8.0,80,0.00,,,0.01,0.000000,,2013-07-09 04:43:00,
2013-07-08 23:53:00,79.0,72.0,-100.00,SE,136,4.0,8.0,80,0.00,,,0.01,0.000000,,2013-07-09 04:53:00,